QPF
0.00 0.00 0.00 0.00 0.00 0.00 0.00 0.00 0.00 0.00 0.00 0.00 0.00 0.00 0.00 0.00 0.00 0.00 0.00 0.00 0.00 0.00 0.00 0.00 0.00 0.00 0.00 0.00 0.00 0.00 0.00 0.00 0.00 0.00 0.00 0.00 0.00 0.00 0.00 0.00 0.00 0.00 0.00 0.00
0.00 0.00 0.00 0.00 0.00 0.00 0.00 0.00 0.00 0.00 0.00 0.00 0.00 0.00 0.00 0.00 0.00 0.00 0.00 0.00 0.00 0.00 0.00 0.00 0.00 0.00 0.00 0.00 0.00 0.00 0.00 0.00 0.00 0.00 0.00 0.00 0.00 0.00 0.00 0.00 0.00 0.00 0.00 0.00
0.00 0.00 0.00 0.00 0.00 0.00 0.00 0.00 0.00 0.00 0.00 0.00 0.00 0.00 0.00 0.00 0.00 0.00 0.00 0.00 0.00 0.00 0.00 0.00 0.00 0.00 0.00 0.00 0.00 0.00 0.00 0.00 0.00 0.00 0.00 0.00 0.00 0.00 0.00 0.00 0.00 0.00 0.00 0.00
0.00 0.00 0.00 0.00 0.00 0.00 0.00 0.00 0.00 0.00 0.00 0.00 0.00 0.00 0.00 0.00 0.00 0.00 0.00 0.00 0.00 0.00 0.00 0.00 0.00 0.00 0.00 0.00 0.00 0.00 0.00 0.00 0.00 0.00 0.00 0.00 0.00 0.00 0.00 0.00 0.00 0.00 0.00 0.00
0.00 0.00 0.00 0.00 0.00 0.00 0.00 0.00 0.00 0.00 0.00 0.00 0.00 0.00 0.00 0.00 0.00 0.00 0.00 0.00 0.00 0.00 0.00 0.00 0.00 0.00 0.00 0.00 0.00 0.00 0.00 0.00 0.00 0.00 0.00 0.00 0.00 0.00 0.00 0.00 0.00 0.00 0.00 0.00
0.00 0.00 0.00 0.00 0.00 0.00 0.00 0.00 0.00 0.00 0.00 0.00 0.00 0.00 0.00 0.00 0.00 0.00 0.00 0.00 0.00 0.00 0.00 0.00 0.00 0.00 0.00 0.00 0.00 0.00 0.00 0.00 0.00 0.00 0.00 0.00 0.00 0.00 0.00 0.00 0.00 0.00 0.00 0.00
0.00 0.00 0.00 0.00 0.00 0.00 0.00 0.00 0.00 0.00 0.00 0.00 0.00 0.00 0.00 0.00 0.00 0.00 0.00 0.00 0.00 0.00 0.00 0.00 0.00 0.00 0.00 0.00 0.00 0.00 0.00 0.00 0.00 0.00 0.00 0.00 0.00 0.00 0.00 0.00 0.00 0.00 0.00 0.00
0.00 0.00 0.00 0.00 0.00 0.00 0.00 0.00 0.00 0.00 0.00 0.00 0.00 0.00 0.00 0.00 0.00 0.00 0.00 0.00 0.00 0.00 0.00 0.00 0.00 0.00 0.00 0.00 0.00 0.00 0.00 0.00 0.00 0.00 0.00 0.00 0.00 0.00 0.00 0.00 0.00 0.00 0.00 0.00
0.00 0.00 0.00 0.00 0.00 0.00 0.00 0.00 0.00 0.00 0.00 0.00 0.00 0.00 0.00 0.00 0.00 0.00 0.00 0.00 0.00 0.00 0.00 0.00 0.00 0.00 0.00 0.00 0.00 0.00 0.00 0.00 0.00 0.00 0.00 0.00 0.00 0.00 0.00 0.00 0.00 0.00 0.00 0.00
0.00 0.00 0.00 0.00 0.00 0.00 0.00 0.00 0.00 0.00 0.00 0.00 0.00 0.00 0.00 0.00 0.00 0.00 0.00 0.00 0.00 0.00 0.00 0.00 0.00 0.00 0.00 0.00 0.00 0.00 0.00 0.00 0.00 0.00 0.00 0.00 0.00 0.00 0.00 0.00 0.00 0.00 0.00 0.00
0.00 0.00 0.00 0.00 0.00 0.00 0.00 0.00 0.00 0.00 0.00 0.00 0.00 0.00 0.00 0.00 0.00 0.00 0.00 0.00 0.00 0.00 0.00 0.00 0.00 0.00 0.00 0.00 0.00 0.00 0.00 0.00 0.00 0.00 0.00 0.00 0.00 0.00 0.00 0.00 0.00 0.00 0.00 0.00
0.00 0.00 0.00 0.00 0.00 0.00 0.00 0.00 0.00 0.00 0.00 0.00 0.00 0.00 0.00 0.00 0.00 0.00 0.00 0.00 0.00 0.00 0.00 0.00 0.00 0.00 0.00 0.00 0.00 0.00 0.00 0.00 0.00 0.00 0.00 0.00 0.00 0.00 0.00 0.00 0.00 0.00 0.00 0.00
0.00 0.00 0.00 0.00 0.00 0.00 0.00 0.00 0.00 0.00 0.00 0.00 0.00 0.00 0.00 0.00 0.00 0.00 0.00 0.00 0.00 0.00 0.00 0.00 0.00 0.00 0.00 0.00 0.00 0.00 0.00 0.00 0.00 0.00 0.00 0.00 0.00 0.00 0.00 0.00 0.00 0.00 0.00 0.00
0.00 0.00 0.00 0.00 0.00 0.00 0.00 0.00 0.00 0.00 0.00 0.00 0.00 0.00 0.00 0.00 0.00 0.00 0.00 0.00 0.00 0.00 0.00 0.00 0.00 0.00 0.00 0.00 0.00 0.00 0.00 0.00 0.00 0.00 0.00 0.00 0.00 0.00 0.00 0.00 0.00 0.00 0.00 0.00
0.00 0.00 0.00 0.00 0.00 0.00 0.00 0.00 0.00 0.00 0.00 0.00 0.00 0.00 0.00 0.00 0.00 0.00 0.00 0.00 0.00 0.00 0.00 0.00 0.00 0.00 0.00 0.00 0.00 0.00 0.00 0.00 0.00 0.00 0.00 0.00 0.00 0.00 0.00 0.00 0.00 0.00 0.00 0.00
0.00 0.00 0.00 0.00 0.00 0.00 0.00 0.00 0.00 0.00 0.00 0.00 0.00 0.00 0.00 0.00 0.00 0.00 0.00 0.00 0.00 0.00 0.00 0.00 0.00 0.00 0.00 0.00 0.00 0.00 0.00 0.00 0.00 0.00 0.00 0.00 0.00 0.00 0.00 0.00 0.00 0.00 0.00 0.00
0.00 0.00 0.00 0.00 0.00 0.00 0.00 0.00 0.00 0.00 0.00 0.00 0.00 0.00 0.00 0.00 0.00 0.00 0.00 0.00 0.00 0.00 0.00 0.00 0.00 0.00 0.00 0.00 0.00 0.00 0.00 0.00 0.00 0.00 0.00 0.00 0.00 0.00 0.00 0.00 0.00 0.00 0.00 0.00
0.00 0.00 0.00 0.00 0.00 0.00 0.00 0.00 0.00 0.00 0.00 0.00 0.00 0.00 0.00 0.00 0.00 0.00 0.00 0.00 0.00 0.00 0.00 0.00 0.00 0.00 0.00 0.00 0.00 0.00 0.00 0.00 0.00 0.00 0.00 0.00 0.00 0.00 0.00 0.00 0.00 0.00 0.00 0.00
0.00 0.00 0.00 0.00 0.00 0.00 0.00 0.00 0.00 0.00 0.00 0.00 0.00 0.00 0.00 0.00 0.00 0.00 0.00 0.00 0.00 0.00 0.00 0.00 0.00 0.00 0.00 0.00 0.00 0.00 0.00 0.00 0.00 0.00 0.00 0.00 0.00 0.00 0.00 0.00 0.00 0.00 0.00 0.00
0.00 0.00 0.00 0.00 0.00 0.00 0.00 0.00 0.00 0.00 0.00 0.00 0.00 0.00 0.00 0.00 0.00 0.00 0.00 0.00 0.00 0.00 0.00 0.00 0.00 0.00 0.00 0.00 0.00 0.00 0.00 0.00 0.00 0.00 0.00 0.00 0.00 0.00 0.00 0.00 0.00 0.00 0.00 0.00
0.00 0.00 0.00 0.00 0.00 0.00 0.00 0.00 0.00 0.00 0.00 0.00 0.00 0.00 0.00 0.00 0.00 0.00 0.00 0.00 0.00 0.00 0.00 0.00 0.00 0.00 0.00 0.00 0.00 0.00 0.00 0.00 0.00 0.00 0.00 0.00 0.00 0.00 0.00 0.00 0.00 0.00 0.00 0.00
0.00 0.00 0.00 0.00 0.00 0.00 0.00 0.00 0.00 0.00 0.00 0.00 0.00 0.00 0.00 0.00 0.00 0.00 0.00 0.00 0.00 0.00 0.00 0.00 0.00 0.00 0.00 0.00 0.00 0.00 0.00 0.00 0.00 0.00 0.00 0.00 0.00 0.00 0.00 0.00 0.00 0.00 0.00 0.00
0.00 0.00 0.00 0.00 0.00 0.00 0.00 0.00 0.00 0.00 0.00 0.00 0.00 0.00 0.00 0.00 0.00 0.00 0.00 0.00 0.00 0.00 0.00 0.00 0.00 0.00 0.00 0.00 0.00 0.00 0.00 0.00 0.00 0.00 0.00 0.00 0.00 0.00 0.00 0.00 0.00 0.00 0.00 0.00
0.00 0.00 0.00 0.00 0.00 0.00 0.00 0.00 0.00 0.00 0.00 0.00 0.00 0.00 0.00 0.00 0.00 0.00 0.00 0.00 0.00 0.00 0.00 0.00 0.00 0.00 0.00 0.00 0.00 0.00 0.00 0.00 0.00 0.00 0.00 0.00 0.00 0.00 0.00 0.00 0.00 0.00 0.00 0.00
0.00 0.00 0.00 0.00 0.00 0.00 0.00 0.00 0.00 0.00 0.00 0.00 0.00 0.00 0.00 0.00 0.00 0.00 0.00 0.00 0.00 0.00 0.00 0.00 0.00 0.00 0.00 0.00 0.00 0.00 0.00 0.00 0.00 0.00 0.00 0.00 0.00 0.00 0.00 0.00 0.00 0.00 0.00 0.00
0.00 0.00 0.00 0.00 0.00 0.00 0.00 0.00 0.00 0.00 0.00 0.00 0.00 0.00 0.00 0.00 0.00 0.00 0.00 0.00 0.00 0.00 0.00 0.00 0.00 0.00 0.00 0.00 0.00 0.00 0.00 0.00 0.00 0.00 0.00 0.00 0.00 0.00 0.00 0.00 0.00 0.00 0.00 0.00
0.00 0.00 0.00 0.00 0.00 0.00 0.00 0.00 0.00 0.00 0.00 0.00 0.00 0.00 0.00 0.00 0.00 0.00 0.00 0.00 0.00 0.00 0.00 0.00 0.00 0.00 0.00 0.00 0.00 0.00 0.00 0.00 0.00 0.00 0.00 0.00 0.00 0.00 0.00 0.00 0.00 0.00 0.00 0.00
MSLP
1022.94 1023.16 1023.32 1023.44 1023.51 1023.56 1023.59 1023.60 1023.61 1023.60 1023.58 1023.53 1023.44 1023.30 1023.11 1022.86 1022.57 1022.24 1021.89 1021.52 1021.16 1020.81 1020.48 1020.17 1019.88 1019.60 1019.33 1019.06 1018.78 1018.49 1018.19 1017.87 1017.54 1017.21 1016.89 1016.59 1016.30 1016.04 1015.82 1015.63 1015.47 1015.33 1015.21 1015.09
1022.76 1022.93 1023.02 1023.06 1023.05 1023.02 1022.97 1022.94 1022.91 1022.90 1022.90 1022.89 1022.85 1022.78 1022.65 1022.47 1022.23 1021.93 1021.61 1021.26 1020.91 1020.57 1020.25 1019.97 1019.72 1019.50 1019.29 1019.08 1018.87 1018.65 1018.40 1018.14 1017.86 1017.57 1017.28 1017.01 1016.76 1016.53 1016.34 1016.17 1016.03 1015.90 1015.78 1015.65
1022.51 1022.60 1022.60 1022.54 1022.43 1022.31 1022.20 1022.11 1022.06 1022.05 1022.08 1022.12 1022.15 1022.15 1022.10 1021.99 1021.81 1021.56 1021.27 1020.93 1020.59 1020.26 1019.96 1019.70 1019.48 1019.30 1019.15 1019.01 1018.88 1018.73 1018.56 1018.37 1018.16 1017.93 1017.70 1017.47 1017.26 1017.06 1016.90 1016.75 1016.62 1016.50 1016.37 1016.22
1022.20 1022.18 1022.08 1021.91 1021.70 1021.49 1021.31 1021.18 1021.12 1021.13 1021.19 1021.29 1021.40 1021.49 1021.53 1021.50 1021.38 1021.19 1020.93 1020.62 1020.28 1019.96 1019.66 1019.41 1019.21 1019.06 1018.95 1018.88 1018.81 1018.75 1018.66 1018.55 1018.42 1018.26 1018.10 1017.93 1017.76 1017.61 1017.47 1017.35 1017.22 1017.09 1016.94 1016.76
1021.82 1021.69 1021.48 1021.20 1020.90 1020.62 1020.38 1020.23 1020.16 1020.19 1020.30 1020.48 1020.67 1020.85 1020.99 1021.04 1021.00 1020.87 1020.64 1020.36 1020.04 1019.71 1019.41 1019.16 1018.97 1018.84 1018.76 1018.73 1018.73 1018.73 1018.72 1018.69 1018.64 1018.56 1018.46 1018.35 1018.24 1018.12 1018.01 1017.90 1017.78 1017.64 1017.47 1017.26
1021.34 1021.10 1020.79 1020.42 1020.05 1019.71 1019.45 1019.28 1019.23 1019.30 1019.47 1019.72 1020.00 1020.27 1020.50 1020.64 1020.68 1020.61 1020.44 1020.19 1019.89 1019.57 1019.27 1019.01 1018.82 1018.69 1018.63 1018.63 1018.66 1018.71 1018.76 1018.80 1018.81 1018.80 1018.77 1018.72 1018.65 1018.57 1018.48 1018.38 1018.26 1018.11 1017.92 1017.68
1020.72 1020.39 1020.00 1019.58 1019.16 1018.81 1018.54 1018.38 1018.36 1018.48 1018.71 1019.02 1019.39 1019.75 1020.06 1020.29 1020.42 1020.42 1020.31 1020.10 1019.83 1019.53 1019.24 1018.99 1018.79 1018.66 1018.60 1018.60 1018.65 1018.73 1018.82 1018.90 1018.96 1019.01 1019.02 1019.01 1018.98 1018.93 1018.86 1018.76 1018.64 1018.48 1018.28 1018.03
1019.93 1019.54 1019.11 1018.67 1018.25 1017.91 1017.67 1017.55 1017.57 1017.74 1018.02 1018.40 1018.83 1019.26 1019.65 1019.96 1020.16 1020.24 1020.20 1020.06 1019.84 1019.57 1019.30 1019.05 1018.86 1018.72 1018.66 1018.66 1018.71 1018.80 1018.90 1019.00 1019.09 1019.17 1019.21 1019.24 1019.23 1019.20 1019.14 1019.05 1018.93 1018.77 1018.57 1018.32
1018.96 1018.55 1018.12 1017.71 1017.34 1017.04 1016.85 1016.79 1016.87 1017.08 1017.41 1017.84 1018.31 1018.79 1019.24 1019.61 1019.88 1020.03 1020.06 1019.99 1019.83 1019.61 1019.39 1019.17 1018.98 1018.85 1018.78 1018.77 1018.81 1018.89 1018.99 1019.10 1019.20 1019.29 1019.35 1019.39 1019.40 1019.39 1019.34 1019.26 1019.15 1018.99 1018.80 1018.56
1017.84 1017.45 1017.08 1016.73 1016.44 1016.23 1016.12 1016.13 1016.26 1016.52 1016.88 1017.32 1017.81 1018.32 1018.79 1019.19 1019.51 1019.72 1019.82 1019.82 1019.74 1019.60 1019.42 1019.25 1019.10 1018.98 1018.92 1018.90 1018.93 1018.99 1019.08 1019.18 1019.28 1019.36 1019.43 1019.48 1019.51 1019.50 1019.47 1019.40 1019.30 1019.16 1018.99 1018.77
1016.63 1016.31 1016.02 1015.77 1015.59 1015.49 1015.48 1015.56 1015.76 1016.04 1016.42 1016.86 1017.34 1017.83 1018.30 1018.71 1019.05 1019.31 1019.47 1019.53 1019.53 1019.46 1019.36 1019.24 1019.13 1019.05 1019.00 1018.98 1019.00 1019.05 1019.12 1019.20 1019.29 1019.38 1019.45 1019.50 1019.54 1019.55 1019.53 1019.49 1019.41 1019.30 1019.16 1018.98
1015.42 1015.19 1015.00 1014.88 1014.82 1014.84 1014.93 1015.10 1015.35 1015.66 1016.04 1016.46 1016.91 1017.36 1017.79 1018.19 1018.53 1018.80 1019.00 1019.12 1019.18 1019.19 1019.16 1019.11 1019.05 1019.00 1018.97 1018.96 1018.98 1019.02 1019.08 1019.15 1019.23 1019.31 1019.38 1019.44 1019.49 1019.52 1019.53 1019.52 1019.48 1019.40 1019.30 1019.16
1014.30 1014.16 1014.08 1014.08 1014.14 1014.28 1014.47 1014.72 1015.01 1015.35 1015.72 1016.11 1016.51 1016.92 1017.30 1017.66 1017.98 1018.25 1018.47 1018.63 1018.74 1018.81 1018.84 1018.85 1018.84 1018.83 1018.83 1018.83 1018.85 1018.88 1018.93 1018.99 1019.06 1019.14 1019.22 1019.29 1019.36 1019.42 1019.46 1019.48 1019.47 1019.44 1019.38 1019.30
1013.33 1013.26 1013.27 1013.36 1013.53 1013.76 1014.04 1014.35 1014.69 1015.05 1015.41 1015.78 1016.15 1016.50 1016.84 1017.16 1017.45 1017.70 1017.92 1018.11 1018.26 1018.37 1018.45 1018.51 1018.54 1018.57 1018.58 1018.60 1018.62 1018.64 1018.68 1018.74 1018.80 1018.88 1018.96 1019.05 1019.13 1019.21 1019.28 1019.34 1019.38 1019.39 1019.38 1019.35
1012.55 1012.51 1012.57 1012.72 1012.95 1013.24 1013.58 1013.94 1014.32 1014.70 1015.07 1015.43 1015.77 1016.10 1016.40 1016.69 1016.95 1017.20 1017.42 1017.62 1017.79 1017.93 1018.04 1018.13 1018.20 1018.24 1018.28 1018.30 1018.31 1018.33 1018.36 1018.40 1018.46 1018.53 1018.62 1018.71 1018.81 1018.92 1019.01 1019.10 1019.17 1019.23 1019.26 1019.27
1011.96 1011.90 1011.95 1012.10 1012.34 1012.65 1013.01 1013.41 1013.81 1014.22 1014.61 1014.98 1015.33 1015.65 1015.95 1016.23 1016.49 1016.73 1016.96 1017.17 1017.36 1017.52 1017.66 1017.77 1017.85 1017.91 1017.95 1017.97 1017.98 1018.00 1018.01 1018.04 1018.08 1018.14 1018.22 1018.32 1018.42 1018.53 1018.65 1018.76 1018.85 1018.94 1019.01 1019.06
1011.56 1011.42 1011.38 1011.47 1011.66 1011.94 1012.29 1012.69 1013.11 1013.54 1013.96 1014.36 1014.74 1015.09 1015.41 1015.72 1016.00 1016.26 1016.51 1016.74 1016.95 1017.13 1017.29 1017.42 1017.52 1017.60 1017.64 1017.66 1017.67 1017.67 1017.67 1017.68 1017.70 1017.75 1017.81 1017.89 1017.99 1018.10 1018.21 1018.32 1018.43 1018.53 1018.62 1018.70
1011.34 1011.05 1010.88 1010.84 1010.92 1011.12 1011.42 1011.79 1012.20 1012.65 1013.10 1013.54 1013.96 1014.36 1014.74 1015.09 1015.42 1015.72 1016.01 1016.28 1016.52 1016.74 1016.93 1017.08 1017.20 1017.29 1017.35 1017.37 1017.38 1017.37 1017.36 1017.35 1017.36 1017.38 1017.42 1017.48 1017.55 1017.64 1017.74 1017.84 1017.94 1018.03 1018.13 1018.22
1011.30 1010.81 1010.46 1010.25 1010.18 1010.26 1010.45 1010.76 1011.14 1011.57 1012.04 1012.52 1012.99 1013.45 1013.88 1014.30 1014.68 1015.05 1015.39 1015.71 1016.00 1016.27 1016.50 1016.69 1016.85 1016.97 1017.05 1017.09 1017.11 1017.11 1017.09 1017.07 1017.06 1017.06 1017.07 1017.10 1017.15 1017.20 1017.27 1017.34 1017.41 1017.49 1017.57 1017.66
1011.43 1010.75 1010.19 1009.79 1009.54 1009.46 1009.53 1009.73 1010.05 1010.45 1010.90 1011.39 1011.89 1012.39 1012.88 1013.35 1013.80 1014.22 1014.62 1015.00 1015.35 1015.67 1015.96 1016.21 1016.42 1016.58 1016.71 1016.79 1016.83 1016.85 1016.84 1016.83 1016.80 1016.79 1016.78 1016.77 1016.78 1016.80 1016.83 1016.86 1016.89 1016.94 1017.00 1017.07
1011.76 1010.90 1010.15 1009.56 1009.13 1008.89 1008.81 1008.90 1009.12 1009.44 1009.85 1010.31 1010.80 1011.31 1011.82 1012.31 1012.80 1013.27 1013.72 1014.15 1014.56 1014.94 1015.28 1015.60 1015.87 1016.10 1016.28 1016.41 1016.50 1016.55 1016.57 1016.57 1016.55 1016.53 1016.50 1016.48 1016.46 1016.44 1016.42 1016.41 1016.41 1016.42 1016.44 1016.48
1012.29 1011.29 1010.40 1009.66 1009.08 1008.69 1008.47 1008.42 1008.52 1008.74 1009.06 1009.45 1009.88 1010.35 1010.83 1011.31 1011.79 1012.27 1012.74 1013.20 1013.65 1014.08 1014.48 1014.86 1015.19 1015.49 1015.73 1015.92 1016.07 1016.17 1016.23 1016.26 1016.26 1016.24 1016.21 1016.18 1016.13 1016.09 1016.04 1016.00 1015.96 1015.93 1015.91 1015.92
1013.00 1011.94 1010.98 1010.14 1009.46 1008.95 1008.61 1008.44 1008.40 1008.50 1008.69 1008.97 1009.30 1009.67 1010.07 1010.48 1010.92 1011.36 1011.81 1012.26 1012.72 1013.17 1013.61 1014.03 1014.42 1014.77 1015.07 1015.33 1015.53 1015.68 1015.78 1015.85 1015.88 1015.88 1015.86 1015.83 1015.78 1015.72 1015.65 1015.59 1015.52 1015.46 1015.42 1015.40
1013.82 1012.79 1011.84 1010.99 1010.27 1009.70 1009.27 1008.99 1008.83 1008.79 1008.84 1008.97 1009.16 1009.39 1009.66 1009.96 1010.29 1010.65 1011.04 1011.44 1011.87 1012.31 1012.76 1013.19 1013.60 1013.99 1014.33 1014.63 1014.87 1015.07 1015.21 1015.32 1015.38 1015.41 1015.41 1015.39 1015.35 1015.29 1015.23 1015.16 1015.08 1015.01 1014.95 1014.90
1014.67 1013.75 1012.89 1012.10 1011.41 1010.83 1010.36 1010.01 1009.75 1009.58 1009.49 1009.46 1009.48 1009.55 1009.66 1009.82 1010.01 1010.25 1010.53 1010.85 1011.21 1011.60 1012.00 1012.41 1012.82 1013.20 1013.56 1013.87 1014.14 1014.36 1014.53 1014.66 1014.75 1014.81 1014.84 1014.84 1014.82 1014.78 1014.73 1014.67 1014.60 1014.53 1014.46 1014.41
1015.43 1014.69 1013.98 1013.31 1012.71 1012.18 1011.72 1011.34 1011.01 1010.75 1010.53 1010.35 1010.22 1010.12 1010.07 1010.05 1010.09 1010.19 1010.33 1010.54 1010.80 1011.09 1011.43 1011.78 1012.14 1012.49 1012.82 1013.12 1013.38 1013.60 1013.78 1013.92 1014.03 1014.10 1014.15 1014.18 1014.19 1014.18 1014.16 1014.12 1014.07 1014.01 1013.95 1013.90
1015.98 1015.45 1014.93 1014.43 1013.96 1013.52 1013.12 1012.74 1012.39 1012.06 1011.75 1011.46 1011.20 1010.95 1010.75 1010.59 1010.47 1010.42 1010.43 1010.51 1010.64 1010.84 1011.07 1011.33 1011.61 1011.89 1012.16 1012.42 1012.64 1012.84 1013.00 1013.13 1013.24 1013.33 1013.40 1013.45 1013.49 1013.51 1013.52 1013.51 1013.49 1013.45 1013.41 1013.36
Thickness
5697 5693 5689 5684 5678 5672 5671 5672 5669 5666 5658 5659 5657 5652 5651 5649 5649 5648 5649 5649 5648 5647 5648 5647 5645 5644 5642 5640 5638 5638 5636 5635 5633 5634 5633 5633 5634 5634 5635 5636 5637 5637 5639 5641
5699 5695 5692 5689 5688 5681 5675 5673 5670 5665 5663 5670 5666 5661 5657 5656 5654 5653 5653 5653 5652 5652 5653 5652 5650 5648 5647 5644 5642 5641 5638 5636 5634 5634 5633 5632 5632 5632 5632 5631 5631 5630 5630 5630
5710 5700 5695 5700 5707 5694 5688 5685 5680 5674 5677 5676 5668 5664 5662 5661 5658 5657 5657 5656 5656 5656 5656 5656 5656 5653 5652 5648 5646 5644 5641 5638 5636 5634 5632 5631 5631 5630 5628 5627 5625 5623 5622 5622
5712 5705 5702 5720 5719 5711 5699 5695 5692 5688 5685 5680 5675 5673 5670 5668 5665 5663 5663 5662 5661 5661 5661 5662 5661 5659 5655 5652 5650 5647 5643 5639 5637 5634 5633 5631 5630 5628 5626 5625 5621 5618 5615 5614
5714 5710 5716 5722 5717 5712 5703 5703 5707 5697 5692 5686 5683 5678 5677 5677 5674 5671 5668 5666 5666 5666 5666 5666 5665 5663 5662 5659 5654 5650 5644 5640 5638 5636 5633 5630 5628 5626 5623 5621 5619 5616 5610 5608
5712 5709 5718 5729 5729 5724 5713 5709 5723 5712 5701 5694 5685 5678 5683 5684 5679 5676 5673 5672 5670 5670 5670 5668 5666 5665 5664 5661 5656 5651 5646 5642 5638 5636 5633 5629 5626 5624 5621 5618 5615 5612 5607 5604
5713 5714 5730 5738 5729 5721 5708 5725 5731 5722 5713 5703 5694 5695 5693 5687 5683 5680 5677 5675 5674 5673 5671 5669 5668 5668 5667 5663 5657 5652 5647 5643 5639 5636 5632 5628 5625 5622 5619 5616 5613 5610 5606 5602
5719 5717 5730 5734 5727 5725 5736 5739 5735 5728 5721 5712 5705 5701 5694 5689 5685 5683 5681 5678 5677 5675 5674 5672 5670 5669 5668 5663 5658 5654 5649 5644 5640 5636 5633 5629 5624 5621 5618 5614 5611 5607 5604 5600
5734 5742 5749 5743 5744 5747 5746 5742 5738 5732 5726 5718 5709 5702 5696 5692 5689 5686 5684 5682 5680 5678 5676 5675 5674 5671 5669 5664 5661 5656 5652 5646 5642 5638 5633 5629 5626 5621 5618 5614 5611 5608 5603 5599
5735 5748 5751 5747 5748 5747 5744 5743 5742 5736 5730 5722 5714 5708 5701 5696 5693 5689 5687 5685 5682 5680 5679 5678 5676 5673 5670 5667 5664 5661 5656 5651 5646 5642 5637 5632 5626 5623 5619 5615 5611 5608 5603 5599
5738 5753 5753 5750 5749 5749 5745 5744 5740 5736 5732 5725 5719 5712 5706 5701 5696 5693 5690 5687 5684 5682 5680 5679 5678 5676 5673 5670 5668 5664 5659 5655 5650 5645 5640 5636 5631 5624 5620 5614 5608 5604 5603 5600
5748 5763 5761 5761 5762 5755 5748 5743 5740 5735 5730 5727 5722 5716 5711 5705 5701 5696 5693 5690 5687 5685 5683 5683 5681 5679 5676 5673 5671 5668 5664 5659 5654 5649 5644 5640 5635 5630 5619 5614 5608 5604 5600 5597
5764 5762 5762 5762 5759 5757 5752 5749 5744 5739 5734 5728 5724 5720 5714 5709 5704 5699 5695 5692 5689 5687 5685 5685 5683 5681 5679 5676 5674 5671 5668 5663 5659 5654 5649 5645 5640 5636 5631 5621 5613 5609 5605 5601
5756 5753 5753 5756 5757 5755 5752 5750 5746 5741 5737 5733 5727 5721 5716 5711 5706 5702 5698 5696 5692 5689 5687 5686 5684 5683 5681 5679 5676 5674 5671 5665 5661 5657 5653 5650 5646 5641 5636 5632 5626 5621 5613 5607
5751 5751 5756 5757 5755 5751 5749 5747 5742 5738 5736 5733 5729 5723 5717 5712 5708 5705 5703 5699 5694 5690 5688 5687 5685 5684 5682 5680 5678 5677 5674 5670 5666 5663 5658 5654 5650 5646 5642 5637 5633 5628 5625 5619
5752 5749 5748 5747 5748 5747 5744 5743 5741 5739 5737 5733 5728 5724 5720 5716 5712 5708 5704 5699 5694 5692 5691 5688 5686 5685 5682 5681 5679 5678 5675 5670 5666 5666 5663 5659 5656 5652 5648 5644 5640 5636 5632 5628
5744 5744 5742 5742 5745 5746 5745 5744 5744 5742 5739 5735 5730 5727 5722 5717 5712 5708 5705 5701 5697 5695 5693 5690 5688 5686 5683 5681 5680 5680 5678 5675 5666 5667 5667 5665 5661 5658 5654 5650 5647 5644 5640 5634
5743 5748 5750 5751 5751 5749 5746 5745 5744 5743 5740 5737 5732 5727 5722 5717 5714 5711 5708 5704 5699 5696 5694 5692 5690 5687 5684 5682 5680 5681 5680 5679 5675 5674 5671 5667 5665 5663 5660 5656 5653 5649 5646 5641
5726 5733 5739 5743 5746 5748 5747 5745 5743 5742 5740 5737 5731 5727 5724 5720 5717 5714 5711 5705 5700 5697 5697 5695 5690 5686 5685 5683 5679 5678 5678 5678 5676 5675 5673 5668 5665 5666 5664 5661 5659 5656 5653 5650
5709 5718 5726 5732 5737 5740 5743 5743 5741 5738 5737 5734 5730 5726 5723 5721 5718 5714 5710 5706 5704 5703 5702 5697 5691 5688 5686 5683 5677 5679 5678 5677 5676 5676 5674 5673 5671 5670 5669 5666 5664 5662 5659 5656
5691 5701 5711 5719 5726 5731 5734 5736 5735 5733 5731 5729 5727 5724 5722 5720 5717 5713 5708 5705 5706 5703 5699 5693 5691 5689 5686 5683 5675 5678 5677 5676 5675 5675 5675 5674 5673 5673 5671 5670 5668 5666 5664 5662
5671 5682 5693 5704 5712 5720 5725 5727 5728 5727 5725 5723 5721 5720 5717 5715 5713 5710 5708 5706 5707 5701 5696 5693 5692 5688 5685 5679 5678 5677 5675 5675 5674 5674 5674 5673 5673 5673 5673 5672 5671 5669 5668 5666
5647 5659 5671 5683 5694 5704 5710 5713 5716 5717 5717 5716 5715 5714 5713 5711 5710 5706 5703 5704 5702 5696 5694 5694 5691 5686 5680 5677 5677 5675 5674 5673 5673 5673 5673 5672 5672 5672 5672 5672 5671 5671 5669 5668
5621 5633 5644 5657 5670 5679 5686 5693 5697 5701 5703 5704 5705 5705 5704 5703 5702 5702 5703 5700 5697 5693 5691 5690 5685 5681 5675 5677 5676 5674 5673 5671 5670 5670 5670 5670 5670 5671 5670 5670 5670 5670 5669 5668
5592 5604 5614 5625 5637 5645 5655 5665 5672 5677 5682 5686 5689 5690 5692 5693 5693 5693 5692 5691 5687 5684 5684 5683 5679 5675 5673 5674 5673 5672 5670 5669 5668 5668 5667 5666 5667 5667 5667 5667 5667 5667 5667 5667
5563 5574 5582 5593 5603 5613 5625 5635 5644 5651 5658 5662 5666 5670 5673 5675 5676 5677 5677 5678 5677 5675 5676 5676 5674 5670 5670 5671 5669 5668 5666 5665 5662 5660 5661 5662 5663 5663 5663 5663 5663 5663 5664 5664
5534 5544 5554 5563 5573 5582 5592 5602 5612 5620 5628 5636 5642 5646 5651 5655 5657 5659 5661 5663 5664 5664 5665 5666 5666 5666 5665 5665 5663 5662 5661 5660 5659 5657 5657 5657 5657 5657 5658 5658 5658 5659 5659 5660